Tracking 28920 objects as of 24-May-2024
HD Live streaming from Space Station
objects crossing your sky now

MOLNIYA 2-14

Track MOLNIYA 2-14 now!
MOLNIYA 2-14 is classified as:


NORAD ID: 8195
Int'l Code: 1975-081A
Perigee: 2,340.2 km
Apogee: 37,773.9 km
Inclination: 63.6 °
Period: 712.6 minutes
Semi major axis: 26428 km
RCS: 17.1549 m2 (large)
Launch date: September 9, 1975
Source: Commonwealth of Independent States (former USSR) (CIS)
Launch site: PLESETSK MISSILE AND SPACE COMPLEX (PKMTR)
Your satellite tracking list
Your tracking list is empty




NASA's NSSDC Master Catalog

Two Line Element Set (TLE):
1  8195U 75081A   24145.31229428 -.00000632  00000-0  00000+0 0  9992
2  8195  63.6169 114.8540 6703818 288.9299  13.0676  2.02071826357229
Source of the keplerian elements: AFSPC